Location: Wellington
(41.3000°S, 174.7830°E)
Time: 06:51:27
(UTC+12:00)

ATLAS 3B R/B - Pass Details

Date: 24 January 2019
Orbit: 1029 x 1166 km, 63.8° (Epoch: 20 April)

Event Time Altitude Azimuth Distance (km) Brightness Sun altitude
Exits shadow 22:18:12 18° 63° (ENE) 2,420 4.0 -14.5°
Maximum altitude 22:19:17 19° 75° (ENE) 2,394 4.0 -14.7°
Drops below altitude 10° 22:24:02 10° 116° (ESE) 3,043 4.9 -15.3°
Sets 22:27:38 0° 132° (SE) 4,032 5.7 -15.8°
